Location: Chèvreville
(49.1099°N, 2.8495°E)
Time: 10:38:40
(UTC+00:00)

Cosmos 2369 - Pass Details

Date: 28 January 2023
Orbit: 838 x 857 km, 71.0° (Epoch: 23 March)

Event Time Altitude Azimuth Distance (km) Brightness Sun altitude
Rises 18:20:42 0° 213° (SSW) 3,380 7.5 -16.7°
Reaches altitude 10° 18:23:08 10° 215° (SW) 2,450 6.7 -17.1°
Maximum altitude 18:28:45 73° 300° (WNW) 882 3.9 -18.0°
Enters shadow 18:34:15 11° 25° (NNE) 2,402 5.8 -18.9°
